#timestamp,LO_Frequency,Hit,StdDev 
1581993355.3,286047012.2,P
1581993375.1,286047012.2,P
1581993395.9,286047011.1,P
1581993415.7,286047009.3,Y
1581993435.5,286046998.4,P
1581993455.4,286046998.7,N
1581993475.2,286046999.0,N
1581993495.1,286046998.8,N
1581993496.0,286046998.8,N
1581993515.8,286046999.6,N
1581993535.6,286046997.3,N
1581993555.5,286046995.3,N
1581993575.3,286046995.5,N
1581993595.2,286046997.0,N
1581993615.9,286046997.3,N
1581993635.7,286046998.4,N
1581993655.6,286047001.1,N
1581993675.4,286047001.1,N
1581993695.2,286047000.9,N
1581993715.1,286047000.3,N
1581993716.0,286047000.3,N
1581993735.8,286047000.4,N
1581993755.7,286047000.1,N
1581993775.5,286047000.1,N
1581993795.3,286047001.6,N
1581993815.2,286047003.1,N
1581993835.0,286047003.4,N
1581993835.9,286047003.4,N
1581993855.7,286047003.6,N
1581993875.6,286047003.3,N
1581993895.4,286047004.1,N
1581993915.3,286047003.3,N
1581993935.1,286047005.8,N
1581993936.0,286047005.8,N
1581993955.8,286047005.4,N
1581993975.7,286047005.5,N
1581993995.5,286047004.5,N
1581994015.4,286047007.5,N
1581994035.2,286047004.5,N
1581994055.0,286047005.3,N
1581994055.9,286047005.3,N
1581994075.8,286047006.8,N
1581994095.6,286047008.4,N
1581994115.4,286047006.5,N
1581994135.3,286047006.3,N
1581994155.1,286047008.4,Y
1581994175.9,286047004.8,P
1581994195.7,286047005.1,P
1581994215.5,286047005.1,P
1581994235.4,286047004.8,Y
1581994255.2,286047000.7,P
1581994275.1,286047011.9,P
1581994276.0,286046999.4,N
1581994295.8,286046997.2,N
1581994315.6,286046999.1,N
1581994335.5,286046999.6,N
1581994355.3,286046999.2,N
1581994375.2,286047001.2,N
1581994395.9,286047001.0,N
1581994415.7,286047000.2,N
1581994435.6,286047000.5,N
1581994455.4,286046999.9,N
1581994475.2,286047002.6,N
1581994495.1,286047002.3,N
1581994496.0,286047002.3,N
1581994515.8,286047002.2,N
1581994535.6,286047002.5,N
1581994555.5,286047001.6,N
1581994575.3,286047002.1,N
1581994595.2,286047002.2,N
1581994615.9,286047002.3,N
1581994635.7,286047001.3,N
1581994655.6,286047002.5,N
1581994675.4,286047001.8,N
1581994695.3,286047003.4,N
1581994715.1,286047005.8,N
1581994716.0,286047005.8,N
1581994735.8,286047005.5,N
1581994755.7,286047004.6,N
1581994775.5,286047004.6,N
1581994795.3,286047006.5,N
